User: anonymous   Login
Location: Bats
(43.6587°N, 0.4584°W)
Time: 04:03:38
(UTC+00:00)
Language:

Cosmos 1603 - Orbit

View from above orbital plane
View from above orbital plane
View from above satellite
View from above satellite

Ground track
Ground track

The orbit is defined by the following mean orbital elements,

1 15333U          26066.80531803 +.00000000 +00000-0 -56790-4 0 00008
2 15333  71.0232 260.3104 0018199  30.8823 329.3366 14.14501445    01
Epoch (UTC): 07 March 2026 19:19:39
Eccentricity: 0.0018199
inclination: 71.0232°
perigee height: 831 km
apogee height: 857 km
right ascension of ascending node: 260.3104°
argument of perigee: 30.8823°
revolutions per day: 14.14501445
mean anomaly at epoch: 329.3366°

The dashed part of the orbit path shows where the satellite is in the earth's shadow,  

DLR